Grand Marais Airport, MN

9:33 PM CDT on April 24, 2017 (GMT -0500)
Grand Marais-Cook County

Weather History for KCKC - May, 2013

Change the Weather History Date:

Saturday, May 18, 2013

  Actual Average Record
Temperature  
Mean Temperature 45 °F -  
Max Temperature 48 °F 55 °F 84 °F (1998)
Min Temperature 42 °F 36 °F 21 °F (2002)
Degree Days  
Heating Degree Days 20    
Moisture  
Dew Point 41 °F    
Average Humidity 80    
Maximum Humidity 93    
Minimum Humidity 50    
Precipitation  
Precipitation 0.06 in - - ()
Sea Level Pressure  
Sea Level Pressure 30.02 in    
Wind  
Wind Speed 6 mph (ENE)    
Max Wind Speed 9 mph    
Max Gust Speed -    
Visibility 5 miles    
Events Fog , Rain    
Averages and records for this station are not official NWS values.
T = Trace of Precipitation, MM = Missing Value Source: NWS Daily Summary

Daily Weather History Graph

Daily Weather History Graph

Search for Another Location

Airport or City:

Trip Planner

Search our weather history database for the weather conditions in past years. The results will help you decide how hot, cold, wet, or windy it might be!

Date:

Astronomy

May. 18, 2013 Rise Set
Actual Time 5:19 AM CDT 8:37 PM CDT
Civil Twilight 4:41 AM CDT 9:14 PM CDT
Nautical Twilight 3:52 AM CDT 10:04 PM CDT
Astronomical Twilight 2:50 AM CDT 11:07 PM CDT
Moon 1:10 PM CDT (5/18) 1:43 AM CDT (5/18)
Length of Visible Light 16h 32m
Length of Day
15h 17m
First Quarter, 55% of the Moon is Illuminated
May 18
First Quarter
May 24
Full
May 31
Last Quarter
Jun 8
New
Jun 16
First Quarter

Hourly Weather History & Observations

Time (CDT) Temp. Windchill Dew Point Humidity Pressure Visibility Wind Dir Wind Speed Gust Speed Precip Events Conditions
12:13 AM 46.4 °F 41.9 °F 28.4 °F 50% 30.09 in 10.0 mi ENE 9.2 mph - N/A   Scattered Clouds
12:34 AM 48.2 °F - 30.2 °F 50% 30.10 in 10.0 mi NE 8.1 mph - N/A   Mostly Cloudy
12:53 AM 48.2 °F - 30.2 °F 50% 30.11 in 10.0 mi ENE 6.9 mph - N/A   Scattered Clouds
1:13 AM 48.2 °F - 32.0 °F 54% 30.10 in 10.0 mi ENE 4.6 mph - N/A   Scattered Clouds
1:33 AM 48.2 °F - 33.8 °F 58% 30.10 in 10.0 mi East 4.6 mph - N/A   Clear
1:54 AM 48.2 °F - 33.8 °F 58% 30.09 in 10.0 mi East 5.8 mph - N/A   Clear
2:14 AM 46.4 °F 43.5 °F 33.8 °F 62% 30.09 in 10.0 mi East 5.8 mph - N/A   Clear
2:33 AM 46.4 °F 43.5 °F 33.8 °F 62% 30.08 in 10.0 mi East 5.8 mph - N/A   Clear
2:53 AM 46.4 °F 43.5 °F 33.8 °F 62% 30.07 in 10.0 mi ENE 5.8 mph - N/A   Scattered Clouds
3:13 AM 44.6 °F 40.7 °F 33.8 °F 66% 30.06 in 10.0 mi NE 6.9 mph - N/A   Scattered Clouds
3:34 AM 44.6 °F 41.4 °F 35.6 °F 71% 30.06 in 10.0 mi ENE 5.8 mph - N/A   Clear
3:53 AM 44.6 °F 41.4 °F 35.6 °F 71% 30.06 in 10.0 mi NE 5.8 mph - N/A   Clear
4:13 AM 42.8 °F 39.3 °F 33.8 °F 70% 30.07 in 10.0 mi NNE 5.8 mph - N/A   Clear
4:34 AM 42.8 °F 39.3 °F 35.6 °F 76% 30.07 in 10.0 mi ENE 5.8 mph - N/A   Clear
4:53 AM 44.6 °F 42.2 °F 37.4 °F 76% 30.06 in 10.0 mi East 4.6 mph - N/A   Scattered Clouds
5:13 AM 46.4 °F 43.5 °F 37.4 °F 71% 30.06 in 10.0 mi East 5.8 mph - N/A   Scattered Clouds
5:34 AM 46.4 °F 44.3 °F 37.4 °F 71% 30.06 in 10.0 mi ENE 4.6 mph - N/A   Mostly Cloudy
5:54 AM 46.4 °F 43.5 °F 37.4 °F 71% 30.06 in 10.0 mi ENE 5.8 mph - N/A   Scattered Clouds
6:14 AM 46.4 °F 44.3 °F 39.2 °F 76% 30.06 in 10.0 mi East 4.6 mph - N/A   Overcast
6:33 AM 46.4 °F 44.3 °F 39.2 °F 76% 30.07 in 10.0 mi East 4.6 mph - N/A   Mostly Cloudy
6:53 AM 48.2 °F - 39.2 °F 71% 30.07 in 10.0 mi ENE 5.8 mph - N/A   Mostly Cloudy
7:13 AM 48.2 °F - 39.2 °F 71% 30.07 in 10.0 mi ENE 5.8 mph - N/A   Mostly Cloudy
7:33 AM 48.2 °F - 39.2 °F 71% 30.07 in 10.0 mi East 4.6 mph - N/A   Mostly Cloudy
7:54 AM 48.2 °F - 39.2 °F 71% 30.07 in 10.0 mi ESE 6.9 mph - N/A   Overcast
8:14 AM 48.2 °F - 39.2 °F 71% 30.07 in 10.0 mi East 5.8 mph - N/A   Overcast
8:33 AM 48.2 °F - 39.2 °F 71% 30.06 in 10.0 mi East 8.1 mph - N/A   Overcast
8:54 AM 48.2 °F - 39.2 °F 71% 30.06 in 10.0 mi ESE 6.9 mph - N/A   Overcast
9:14 AM 48.2 °F - 39.2 °F 71% 30.07 in 7.0 mi ESE 8.1 mph - N/A   Overcast
9:33 AM 46.4 °F 42.4 °F 41.0 °F 81% 30.06 in 4.0 mi East 8.1 mph - N/A Rain Light Rain
9:54 AM 46.4 °F 42.9 °F 41.0 °F 81% 30.05 in 7.0 mi East 6.9 mph - N/A   Drizzle
10:14 AM 46.4 °F 41.9 °F 41.0 °F 81% 30.05 in 10.0 mi East 9.2 mph - N/A   Drizzle
10:33 AM 46.4 °F 41.9 °F 42.8 °F 87% 30.04 in 5.0 mi East 9.2 mph - N/A   Drizzle
10:54 AM 44.6 °F 39.7 °F 42.8 °F 93% 30.04 in 4.0 mi East 9.2 mph - N/A   Light Drizzle
11:13 AM 46.4 °F 43.5 °F 42.8 °F 87% 30.03 in 4.0 mi East 5.8 mph - N/A Rain Light Rain
11:33 AM 46.4 °F - 42.8 °F 87% 30.03 in 2.5 mi Calm Calm - 0.01 in Rain Light Rain
11:54 AM 46.4 °F 43.5 °F 42.8 °F 87% 30.03 in 0.5 mi East 5.8 mph - 0.02 in   Light Drizzle
12:13 PM 46.4 °F 42.9 °F 42.8 °F 87% 30.03 in 0.2 mi ESE 6.9 mph - N/A   Light Drizzle
12:33 PM 46.4 °F 42.4 °F 42.8 °F 87% 30.01 in 0.2 mi East 8.1 mph - N/A Rain Rain
12:53 PM 46.4 °F 42.9 °F 42.8 °F 87% 30.02 in 0.2 mi East 6.9 mph - N/A Rain Light Rain
1:14 PM 46.4 °F 43.5 °F 42.8 °F 87% 30.01 in 0.2 mi East 5.8 mph - N/A   Light Drizzle
1:33 PM 46.4 °F 43.5 °F 42.8 °F 87% 30.00 in 0.2 mi East 5.8 mph - N/A   Light Drizzle
2:14 PM 46.4 °F 45.2 °F 44.6 °F 93% 30.00 in 0.2 mi ESE 3.5 mph - 0.01 in Rain Light Rain
2:33 PM 46.4 °F 45.2 °F 44.6 °F 93% 29.99 in 0.2 mi East 3.5 mph - 0.01 in Rain Rain
2:54 PM 48.2 °F - 44.6 °F 87% 29.98 in 0.2 mi ENE 5.8 mph - 0.02 in   Drizzle
3:13 PM 48.2 °F - 46.4 °F 93% 29.98 in 0.5 mi East 5.8 mph - N/A   Drizzle
3:34 PM 48.2 °F - 44.6 °F 87% 29.98 in 1.0 mi East 5.8 mph - N/A Rain Rain
3:53 PM 48.2 °F - 44.6 °F 87% 29.98 in 1.2 mi East 5.8 mph - 0.01 in   Light Drizzle
4:13 PM 48.2 °F - 44.6 °F 87% 29.97 in 0.5 mi ENE 5.8 mph - N/A   Light Drizzle
4:34 PM 48.2 °F - 44.6 °F 87% 29.97 in 0.5 mi ENE 4.6 mph - N/A   Drizzle
4:53 PM 48.2 °F - 44.6 °F 87% 29.97 in 0.5 mi Calm Calm - N/A   Light Drizzle
5:13 PM 48.2 °F - 44.6 °F 87% 29.98 in 0.2 mi ESE 4.6 mph - N/A   Light Drizzle
5:34 PM 48.2 °F - 44.6 °F 87% 29.98 in 0.2 mi SE 3.5 mph - N/A   Drizzle
5:53 PM 46.4 °F 45.2 °F 44.6 °F 93% 29.97 in 0.2 mi East 3.5 mph - N/A   Drizzle
6:14 PM 48.2 °F - 44.6 °F 87% 29.96 in 0.2 mi ENE 3.5 mph - N/A   Drizzle
6:33 PM 46.4 °F 45.2 °F 44.6 °F 93% 29.96 in 0.2 mi East 3.5 mph - N/A   Drizzle
6:54 PM 48.2 °F - 44.6 °F 87% 29.96 in 0.2 mi East 3.5 mph - N/A   Light Drizzle
7:13 PM 48.2 °F - 44.6 °F 87% 29.96 in 0.2 mi Calm Calm - N/A   Light Drizzle
7:33 PM 48.2 °F - 44.6 °F 87% 29.96 in 0.2 mi Calm Calm - N/A Fog Fog
7:54 PM 48.2 °F - 44.6 °F 87% 29.95 in 0.2 mi East 3.5 mph - N/A Fog Fog
8:13 PM 48.2 °F - 44.6 °F 87% 29.95 in 0.2 mi NNE 3.5 mph - N/A Fog Fog
8:34 PM 46.4 °F 45.2 °F 44.6 °F 93% 29.94 in 0.2 mi North 3.5 mph - 0.01 in Fog Fog
8:53 PM 46.4 °F - 44.6 °F 93% 29.94 in 0.5 mi Calm Calm - 0.01 in Fog Fog
9:13 PM 46.4 °F - 44.6 °F 93% 29.94 in 0.8 mi Calm Calm - N/A   Overcast
9:33 PM 46.4 °F 45.2 °F 44.6 °F 93% 29.94 in 1.5 mi North 3.5 mph - N/A   Overcast
9:54 PM 46.4 °F 45.2 °F 44.6 °F 93% 29.93 in 3.0 mi North 3.5 mph - N/A   Overcast
10:14 PM 46.4 °F 45.2 °F 44.6 °F 93% 29.93 in 5.0 mi North 3.5 mph - N/A   Overcast
10:34 PM 46.4 °F - 44.6 °F 93% 29.92 in 5.0 mi Calm Calm - N/A   Overcast
10:54 PM 48.2 °F - 44.6 °F 87% 29.92 in 5.0 mi Calm Calm - N/A   Overcast
11:13 PM 48.2 °F - 44.6 °F 87% 29.92 in 4.0 mi Calm Calm - N/A   Overcast
11:33 PM 48.2 °F - 44.6 °F 87% 29.91 in 4.0 mi Calm Calm - N/A   Mostly Cloudy
11:54 PM 48.2 °F - 44.6 °F 87% 29.91 in 3.0 mi Calm Calm - N/A   Overcast